This is the latest recevied weather packets stored in our database for station/object KC5DAQ-27. If no packets are shown the sender has not sent any weather packets the latest 1 day(s).
| Time | Temp. | Humidity | Pressure | Rain* | Wind** | Luminosity | Snow |
|---|---|---|---|---|---|---|---|
| 1777969692 | 20.56° C | 93% | 1000.4 hPa | 0.25 mm | 2.24 m/s, 190° | 0 W/m² | - |
| 1777969630 | 20.56° C | 93% | 1000.3 hPa | 0.25 mm | 2.68 m/s, 196° | 0 W/m² | - |
| 1777969569 | 20.56° C | 92% | 1000.3 hPa | 0.25 mm | 2.68 m/s, 189° | 0 W/m² | - |
| 1777969505 | 20.56° C | 92% | 1000.3 hPa | 0.25 mm | 2.24 m/s, 195° | 0 W/m² | - |
| 1777969444 | 20.56° C | 92% | 1000.2 hPa | 0.25 mm | 2.24 m/s, 195° | 0 W/m² | - |
| 1777969383 | 20.56° C | 92% | 1000.4 hPa | 0.25 mm | 2.24 m/s, 195° | 0 W/m² | - |
| 1777969323 | 20.56° C | 92% | 1000.4 hPa | 0.25 mm | 2.24 m/s, 195° | 0 W/m² | - |
| 1777969263 | 20.56° C | 92% | 1000.4 hPa | 0.25 mm | 1.79 m/s, 192° | 0 W/m² | - |
| 1777969202 | 20.56° C | 92% | 1000.4 hPa | 0.25 mm | 1.79 m/s, 189° | 0 W/m² | - |
| 1777969144 | 20.56° C | 92% | 1000.5 hPa | 0 mm | 1.79 m/s, 188° | 0 W/m² | - |
| 1777969082 | 20.56° C | 92% | 1000.5 hPa | 0 mm | 1.79 m/s, 188° | 0 W/m² | - |
| 1777969022 | 20.56° C | 92% | 1000.5 hPa | 0 mm | 1.79 m/s, 202° | 0 W/m² | - |
| 1777968963 | 21.11° C | 92% | 1000.5 hPa | 0 mm | 2.24 m/s, 179° | 0 W/m² | - |
| 1777968904 | 21.11° C | 92% | 1000.6 hPa | 0 mm | 2.24 m/s, 183° | 0 W/m² | - |
| 1777968843 | 21.11° C | 92% | 1000.6 hPa | 0 mm | 1.79 m/s, 192° | 0 W/m² | - |
| 1777968782 | 21.11° C | 92% | 1000.6 hPa | 0 mm | 1.34 m/s, 189° | 0 W/m² | - |
| 1777968724 | 21.11° C | 92% | 1000.6 hPa | 0 mm | 1.34 m/s, 180° | 0 W/m² | - |
| 1777968662 | 21.11° C | 92% | 1000.6 hPa | 0 mm | 1.79 m/s, 190° | 0 W/m² | - |
| 1777968603 | 21.11° C | 92% | 1000.6 hPa | 0 mm | 1.79 m/s, 182° | 0 W/m² | - |
| 1777968543 | 21.11° C | 92% | 1000.7 hPa | 0 mm | 1.79 m/s, 183° | 0 W/m² | - |
| 1777968483 | 21.11° C | 92% | 1000.6 hPa | 0 mm | 1.79 m/s, 193° | 0 W/m² | - |
| 1777968422 | 21.11° C | 92% | 1000.7 hPa | 0 mm | 2.24 m/s, 180° | 0 W/m² | - |
| 1777968363 | 21.11° C | 92% | 1000.6 hPa | 0 mm | 1.79 m/s, 186° | 0 W/m² | - |
| 1777968306 | 21.11° C | 92% | 1000.6 hPa | 0 mm | 1.79 m/s, 197° | 0 W/m² | - |
| 1777968242 | 21.11° C | 92% | 1000.5 hPa | 0 mm | 1.79 m/s, 185° | 0 W/m² | - |
* Rain latest hour (hover to see other rain measurements)
** Current wind speed in m/s (hover to see current wind gust speed)